Location: Arleux
(50.3632°N, 2.8721°E)
Time: 00:01:04
(UTC+00:00)

N. Korean satellite - Pass Details

Date: 11 March 2021
Orbit: 453 x 499 km, 97.2° (Epoch: 11 April)

Event Time Altitude Azimuth Distance (km) Brightness Sun altitude
Rises 04:55:23 0° 18° (NNE) 2,550 10.6 -12.8°
Reaches altitude 10° 04:57:31 10° 26° (NNE) 1,673 9.8 -12.5°
Maximum altitude 05:00:57 41° 98° (E) 717 8.0 -11.9°
Drops below altitude 10° 05:04:24 10° 170° (S) 1,682 9.3 -11.4°
Sets 05:06:33 0° 178° (S) 2,565 10.2 -11.1°
